CZ-6A DEB

Satellite information

Favourite Embed

Satellite Type and Status

DEBRISIN ORBIT

Key statistics

Satellite CZ-6A DEB at a glance.

Uptime

1128

Days in orbit

Revolutions

≈ 14.1

Per day

Orbit

SSO

Sun Synchronous Orbit

Inclination

98.8

Latest

Satellite identification and parameters

Extended collection of information and parameters for CZ-6A DEB.

Object identification

Identified? True

Debris? True

Object name: CZ-6A DEB

International designator: 2022-151JF

Object number (NORAD): 54503

Object ID (CCSDS): 54503

Country: PEOPLES REPUBLIC OF CHINA (PRC)

Current information (Y/N): Y

RCS size: SMALL

Orbital parameters

Period: 101.989 minutes

Inclination: 98.7543 deg

SMA: 7230.961 km

Apoapsis: 890.038 km

Periapsis: 815.615 km

RAAN: 332.2591 deg

Eccentricy: 0.0051462

Argument of periapsis: 154.0035 deg

Mean anomaly: 206.3738 deg

Mean motion: 14.11915443 rev/day

Mean motion (dot): 0.0000099 rev/day2

B* drag term: 0.00055819 1/REarth

Two-line elements (TLE)

Creation date: Dec. 12, 2025, 7:16 a.m.

Reference frame: TEME

Reference center: EARTH

Epoch: Dec. 11, 2025, 9:49 p.m. UTC

TLE line 0: 0 CZ-6A DEB

TLE line 1: 1 54503U 22151JF 25345.90953832 .00000990 00000-0 55819-3 0 9995

TLE line 2: 2 54503 98.7543 332.2591 0051462 154.0035 206.3738 14.11915443158417

Live tracking on map

Real-time ground track for satellite CZ-6A DEB.

In-orbit conjunctions

A list of the most updated potential collisions computed for object CZ-6A DEB.

Target Orbit TCA Probability of collision Miss distance Type
CZ-6A DEB LEO 2025-02-18 09:30:31 0.0001090618 137.0 (m) DEBRIS
CZ-6A DEB SSO 2024-09-24 23:48:13 0.0001210695 941.0 (m) DEBRIS

Associated space launch

Chinese satellite reported for atmospheric/ocean/environmental/spatial parameter research purposes, details TBD.

CZ-6A DEB was lifted into orbit during the mission ‘Long March 6A | Yunhai 3’, on board a Long March 6A space rocket.

The launch took place on Nov. 11, 2022, 10:52 p.m. from Launch Complex 9A.

For more information about the launch, click the button.

Launch to space Long March 6A | Yunhai 3
Long March 6A | Yunhai 3

Agency: N/A

Status: Launch Successful

Launch date: Nov. 11, 2022, 10:52 p.m. UTC

Rocket: Long March 6A

Launch pad: Launch Complex 9A

Location: Taiyuan Satellite Launch Center, People's Republic of China

...

Latest news about this satellite

There are no fresh news available about this satellite. Check back as we update our databases every day.


Newsletter sign-up

Weekly statistics, charts and insights to help you stay on top of the space industry.